Regional Weather Roundup
Issued by NWS Cleveland, OH

Home | Current Version | Previous Version | Graphics & Text | Print | Product List | Glossary On
Versions: 1 2 3 4 5 6 7 8 9 10 11 12 13 14 15 16 17 18 19 20 21 22 23 24 25 26 27 28 29 30 31 32 33 34 35 36 37 38 39 40 41 42 43 44 45 46 47 48 49 50
000
ASUS41 KCLE 251200
RWRCLE
OHIO REGIONAL WEATHER ROUNDUP
NATIONAL WEATHER SERVICE WILMINGTON, OH
800 AM EDT WED MAY 25 2016

NOTE: "FAIR" INDICATES FEW OR NO CLOUDS BELOW 12,000 FEET WITH NO
SIGNIFICANT WEATHER AND/OR OBSTRUCTIONS TO VISIBILITY.

OHZ001>008-015>018-024>027-034-035-043-044-251300-
   NORTHWEST OHIO

CITY           SKY/WX    TMP DP  RH WIND       PRES   REMARKS
DEFIANCE       FAIR      67  54  63 S6        30.07F
FINDLAY        FAIR      66  50  56 S9        30.08S
TOLEDO EXPRESS FAIR      63  52  67 CALM      30.07S
TOLEDO EXEC    FAIR      65  51  60 SW5       30.08S
LIMA           FAIR      64  52  64 S9        30.10S
$$

OHZ009>014-019>023-028>033-038-089-251300-
   NORTHEAST OHIO

CITY           SKY/WX    TMP DP  RH WIND       PRES   REMARKS
CLE-HOPKINS    PTSUNNY   67  49  52 S6        30.13R
CLE-LAKEFRONT  FAIR      71  49  45 S8        30.09S
CUY CO. ARPT   PTSUNNY   70  50  49 SW7       30.12R
LORAIN-ELYRIA  NOT AVBL
ASHTABULA      FAIR      64  52  64 SW5       30.12S
AKRON-CANTON   PTSUNNY   61  52  72 S6        30.15R
WOOSTER        NOT AVBL
MANSFIELD      FAIR      65  52  62 S7        30.14R
YOUNGSTOWN     CLOUDY    64  51  62 S6        30.14S
$$

OHZ042-051>053-060>062-070>072-077>081-251300-
  SOUTHWEST OHIO

CITY           SKY/WX    TMP DP  RH WIND       PRES   REMARKS
CINC-COVINGTON PTSUNNY   68  54  60 S7        30.12R
CINC-LUNKEN    PTSUNNY   60  58  92 CALM      30.13S
HAMILTON       CLOUDY    66  55  67 CALM      30.12S
DAYTON         NOT AVBL
WRIGHT-PAT AFB NOT AVBL
DAYTON GENERAL PTSUNNY   65  52  62 S8        30.12R
WILMINGTON     FAIR      67  53  61 S7        30.13S
$$

OHZ036-037-039>041-045>050-054>059-063>069-073>076-082>088-251300-
  CENTRAL AND SOUTHEAST OHIO

CITY           SKY/WX    TMP DP  RH WIND       PRES   REMARKS
COLUMBUS       FAIR      62  53  72 SE3       30.13F
OSU AIRPORT    FAIR      63  54  72 SE3       30.13S
BOLTON FIELD   SUNNY     63  55  77 S5        30.14S
RICKENBACK AFB NOT AVBL
NEWARK         FAIR      58  53  84 CALM      30.14S
MARION         FAIR      61  53  75 S8        30.13R
LANCASTER      FAIR      60  55  83 SE5       30.14F
ZANESVILLE     FAIR      60  54  80 CALM      30.15S
NEW PHILLY     FAIR      59  53  80 SE3       30.16S
$$




USA.gov is the U.S. government's official web portal to all federal, state and local government web resources and services.